Dalhart, TX

7:44 AM CDT on April 27, 2017 (GMT -0500)
Dalhart Municipal

Weather History for KDHT - May, 2013

Change the Weather History Date:

Wednesday, May 15, 2013

  Actual Average Record
Temperature  
Mean Temperature 71 °F 63 °F  
Max Temperature 91 °F 78 °F 102 °F (1996)
Min Temperature 50 °F 48 °F 31 °F (1967)
Degree Days  
Heating Degree Days 0 4  
Month to date heating degree days 117 79  
Since 1 July heating degree days 4397 4681  
Cooling Degree Days 6 2  
Month to date cooling degree days 13 17  
Year to date cooling degree days 24 23  
Growing Degree Days 21 (Base 50)    
Moisture  
Dew Point 36 °F    
Average Humidity 33    
Maximum Humidity 54    
Minimum Humidity 11    
Precipitation  
Precipitation T in 0.08 in 1.22 in (1949)
Month to date precipitation 0.43 0.96  
Year to date precipitation 1.29 4.13  
Snow  
Snow 0.00 in 0.00 in T in (1955)
Month to date snowfall T 0.1  
Since 1 July snowfall 21.6 19.0  
Snow Depth 0.00 in    
Sea Level Pressure  
Sea Level Pressure 29.73 in    
Wind  
Wind Speed 7 mph (WSW)    
Max Wind Speed 36 mph    
Max Gust Speed 52 mph    
Visibility 9 miles    
Events Rain    
T = Trace of Precipitation, MM = Missing Value Source: NWS Daily Summary

Daily Weather History Graph

Daily Weather History Graph

Search for Another Location

Airport or City:

Trip Planner

Search our weather history database for the weather conditions in past years. The results will help you decide how hot, cold, wet, or windy it might be!

Date:

Astronomy

May. 15, 2013 Rise Set
Actual Time 6:44 AM CDT 8:49 PM CDT
Civil Twilight 6:15 AM CDT 9:18 PM CDT
Nautical Twilight 5:40 AM CDT 9:52 PM CDT
Astronomical Twilight 5:03 AM CDT 10:30 PM CDT
Moon 11:20 AM CDT (5/15) 12:38 AM CDT (5/15)
Length of Visible Light 15h 02m
Length of Day
14h 05m
Waxing Crescent, 27% of the Moon is Illuminated
May 15
Waxing Crescent
May 17
First Quarter
May 24
Full
May 31
Last Quarter
Jun 8
New

Hourly Weather History & Observations

Time (CDT) Temp. Dew Point Humidity Pressure Visibility Wind Dir Wind Speed Gust Speed Precip Events Conditions
12:53 AM 63.0 °F 30.0 °F 29% 29.77 in 10.0 mi South 12.7 mph - N/A   Clear
1:53 AM 60.1 °F 36.0 °F 41% 29.78 in 10.0 mi SSW 9.2 mph - N/A   Clear
2:53 AM 55.9 °F 34.0 °F 44% 29.79 in 8.0 mi West 5.8 mph - N/A   Clear
3:53 AM 55.9 °F 33.1 °F 42% 29.78 in 9.0 mi West 6.9 mph - N/A   Clear
4:53 AM 52.0 °F 35.1 °F 53% 29.76 in 10.0 mi SW 8.1 mph - N/A   Clear
5:53 AM 54.0 °F 34.0 °F 47% 29.75 in 10.0 mi Calm Calm - N/A   Clear
6:53 AM 52.0 °F 35.1 °F 53% 29.75 in 10.0 mi Calm Calm - N/A   Clear
7:53 AM 55.9 °F 36.0 °F 47% 29.77 in 9.0 mi South 4.6 mph - N/A   Clear
8:53 AM 64.9 °F 39.0 °F 39% 29.76 in 10.0 mi South 8.1 mph - N/A   Clear
9:53 AM 69.1 °F 39.0 °F 33% 29.77 in 10.0 mi SSW 9.2 mph - N/A   Clear
10:53 AM 73.9 °F 37.9 °F 27% 29.76 in 10.0 mi WNW 5.8 mph - N/A   Clear
11:53 AM 79.0 °F 37.9 °F 23% 29.74 in 10.0 mi Calm Calm - N/A   Clear
12:53 PM 84.0 °F 36.0 °F 18% 29.70 in 10.0 mi SSE 6.9 mph - N/A   Clear
1:53 PM 86.0 °F 33.1 °F 15% 29.68 in 10.0 mi Variable 4.6 mph - N/A   Clear
2:53 PM 89.1 °F 30.0 °F 12% 29.66 in 10.0 mi WNW 8.1 mph 16.1 mph N/A   Clear
3:53 PM 88.0 °F 28.0 °F 12% 29.64 in 10.0 mi Variable 4.6 mph - N/A   Clear
4:53 PM 90.0 °F 28.0 °F 11% 29.62 in 10.0 mi Calm Calm - N/A   Clear
5:53 PM 88.0 °F 28.9 °F 12% 29.62 in 10.0 mi WNW 6.9 mph - N/A   Clear
6:53 PM 88.0 °F 35.1 °F 15% 29.63 in 10.0 mi WSW 17.3 mph 23.0 mph N/A   Clear
7:33 PM 82.4 °F 35.6 °F 19% 29.82 in 1.8 mi NNW 20.7 mph 47.2 mph 0.00 in Rain Light Rain
7:46 PM 78.8 °F 39.2 °F 24% 29.85 in 4.0 mi WNW 18.4 mph 51.8 mph 0.00 in Rain Light Rain
7:53 PM 78.1 °F 39.9 °F 25% 29.69 in 5.0 mi SSW 13.8 mph 41.4 mph 0.00 in Rain Light Rain
8:16 PM 77.0 °F 41.0 °F 28% 29.83 in 9.0 mi WSW 21.9 mph 46.0 mph 0.00 in Rain Light Rain
8:53 PM 77.0 °F 39.9 °F 26% 29.68 in 10.0 mi SW 10.4 mph - 0.00 in   Clear
9:53 PM 73.9 °F 39.9 °F 29% 29.69 in 4.0 mi West 11.5 mph - N/A   Haze
10:53 PM 72.0 °F 41.0 °F 33% 29.70 in 10.0 mi NW 9.2 mph - N/A   Clear
11:53 PM 69.1 °F 41.0 °F 36% 29.70 in 10.0 mi NNW 9.2 mph - N/A   Clear